Location: West Cummington
(42.4920°N, 72.9680°W)
Time: 09:34:01
(UTC-04:00)

Daily predictions for brighter satellites

Satellite Brightness Start Highest point End
(mag) Time Altitude Azimuth Time Altitude Azimuth Time Altitude Azimuth
DEBRIS 3.5 20:39:24 10° SW 20:42:28 63° SE 20:51:41 10° ENE
COSMOS 2455 4.4 20:42:11 10° NW 20:47:32 34° WSW 20:52:50 10° S
Meteor 2-13 Rocket 4.5 20:42:06 10° N 20:48:09 69° E 20:54:12 10° SSE
GENESIS II 4.4 20:48:42 10° NW 20:52:40 71° WSW 20:56:31 10° SSE
Cosmos 1980 Rocket 4.4 20:51:58 10° NNE 20:53:29 11° NE 20:54:58 10° NE
DNEPR-1 R/B 3.7 20:49:43 10° NW 20:53:58 74° WSW 20:58:36 10° SSE
CZ-4B DEB 2.6 20:53:38 10° SSE 20:56:35 65° ENE 20:59:34 10° N
Helios 1B rocket 2.4 20:52:43 10° NNE 20:56:52 73° ESE 21:01:00 10° S
Meteor 1-29 2.9 20:57:58 10° NNE 21:01:20 64° ESE 21:04:39 10° S
Okean 1-7 Rocket 3.9 20:57:28 10° SSE 21:01:46 50° E 21:06:09 10° NNE
ARGOS 4.3 20:58:38 10° ESE 21:03:11 29° ENE 21:07:47 10° N
Cosmos 405 Rocket 3.3 21:00:25 10° SSW 21:04:08 61° WNW 21:07:58 10° N
Cosmos 1238 Rocket 4.2 20:57:37 10° S 21:04:16 64° E 21:10:34 10° NNE
Aureole 3 Rocket 3.5 20:59:39 10° S 21:05:44 89° W 21:10:03 10° N
OAO 2 Rocket 4.1 21:01:41 10° WSW 21:06:06 34° S 21:10:25 11° ESE
SJ-11-01 4.4 21:02:27 10° SSE 21:07:08 84° WSW 21:11:53 10° NNW
ISS -3.2 21:04:44 10° WSW 21:08:00 61° NNW 21:11:17 10° NE
Aureole 1 Rocket 2.4 21:05:31 10° SSW 21:08:43 73° WNW 21:11:42 10° NNE
Cosmos 1606 Rocket 4.3 21:05:39 10° N 21:09:37 35° ENE 21:13:20 11° SE
Cosmos 1441 Rocket 3.1 21:07:55 10° S 21:11:39 84° E 21:15:24 10° NNE
ASTEX 1 3.4 21:09:17 10° SSE 21:14:09 67° E 21:19:00 10° N
Meteor 1-23 Rocket 4.2 21:10:43 10° S 21:16:14 70° E 21:21:50 10° NNE
Intercosmos 24 3.9 21:12:45 10° N 21:16:30 53° E 21:19:46 11° SSE
Cosmos 1025 Rocket 3.0 21:13:57 10° S 21:18:10 67° E 21:22:25 10° NNE
Cosmos 1726 Rocket 4.3 21:14:57 10° N 21:18:59 36° ENE 21:22:18 14° SE
USA 186 4.4 21:16:58 10° SW 21:19:17 19° W 21:21:34 10° NW
Cosmos 2112 Rocket 4.4 21:14:18 10° SSW 21:19:28 67° WNW 21:24:40 10° NNE
Lacrosse 5 rocket 4.3 21:18:27 10° NNW 21:20:44 13° N 21:23:03 10° NE
Okean 2 3.4 21:20:13 10° S 21:24:13 59° E 21:28:15 10° NNE
Cosmos 1624 Rocket 4.1 21:20:28 10° NNW 21:25:46 73° ENE 21:30:27 13° SSE
USA 245 3.9 21:26:05 16° E 21:26:54 19° ENE 21:28:39 10° NNE
Cosmos 2082 Rocket 2.9 21:26:24 10° SSE 21:31:21 32° ESE 21:36:17 10° NE
Cosmos 2278 4.0 21:26:15 10° NNW 21:31:53 55° ENE 21:36:16 16° SE
H-2A R/B 3.0 21:28:36 14° ESE 21:32:02 30° ENE 21:36:25 10° N
SL-27 R/B 4.1 21:29:12 10° SW 21:32:39 38° WNW 21:36:06 10° N
Cosmos 2058 Rocket 3.6 21:31:56 10° N 21:36:09 42° ENE 21:39:01 19° SE
Meteor 1-15 Rocket 4.2 21:31:38 10° N 21:37:15 89° W 21:42:38 11° S
PSLV R/B 4.3 21:34:48 10° W 21:37:31 27° SSW 21:38:46 20° SSE
MOS 1-B Rocket 4.1 21:32:34 13° SSE 21:37:50 74° ENE 21:44:26 10° N
Cosmos 2181 Rocket 4.2 21:31:50 10° SSE 21:37:58 53° E 21:44:03 10° NNE
YAOGAN 11 4.2 21:38:20 18° SSE 21:41:26 60° ENE 21:45:43 10° N
Cosmos 2056 Rocket 3.5 21:40:05 10° NNW 21:45:16 82° WSW 21:49:17 17° SSE
YAOGAN 6 3.7 21:43:31 10° SSW 21:46:48 38° W 21:50:07 10° NNW
Meteor 1-4 Rocket 3.9 21:44:58 10° NNE 21:48:00 25° ENE 21:49:11 21° ESE
Cosmos 1697 Rocket 3.5 21:44:42 10° N 21:49:59 40° ENE 21:53:32 19° ESE
Cosmos 2369 3.7 21:46:21 10° NNW 21:52:07 79° ENE 21:56:03 21° SSE
Cosmos 1656 3.9 21:47:58 10° NNW 21:53:21 57° ENE 21:56:49 22° SE
Cosmos 839 Rocket 4.4 21:46:47 10° NNW 21:53:22 89° ENE 21:59:18 19° SSE
H-2A R/B 3.6 21:54:53 18° ESE 21:56:58 24° ENE 22:00:37 10° NNE
SL-16 R/B 4.5 21:54:44 10° NNE 21:57:08 13° NE 21:59:31 10° ENE
Cosmos 962 Rocket 4.5 21:51:19 10° N 21:57:35 88° W 22:02:44 15° S
NOSS 8 (F) 4.5 21:56:26 10° SW 21:59:57 83° NW 22:03:35 10° NE
Tiangong 2 1.1 21:59:12 10° W 22:02:23 82° N 22:04:05 25° E
Cosmos 1833 Rocket 2.7 22:01:02 11° S 22:06:23 58° ESE 22:11:54 10° NNE
MetOp-A 4.5 22:02:23 15° S 22:06:46 63° WSW 22:12:06 10° NNW
Cosmos 1626 Rocket 4.2 22:05:32 28° SE 22:06:56 37° E 22:10:55 10° NNE
COSMOS 2487 2.7 22:10:54 13° SSW 22:14:00 69° WNW 22:17:35 10° NNE
Terra 2.6 22:12:16 26° ESE 22:14:16 38° ENE 22:18:41 10° N
Cosmos 1437 Rocket 4.2 22:10:53 10° NNW 22:14:20 32° W 22:17:17 13° SSW
SL-8 Rocket 4.0 22:08:41 10° N 22:14:59 79° E 22:18:59 24° SSE
Cosmos 1271 Rocket 4.2 22:13:30 10° NNE 22:16:40 23° ENE 22:17:24 22° E
Cosmos 1452 Rocket 3.5 22:11:52 10° NNW 22:17:10 79° ENE 22:19:50 30° SSE
TELKOM 3 3.3 22:18:01 10° WNW 22:20:28 72° SSW 22:20:42 66° S
Cosmos 2228 3.1 22:16:14 10° NNW 22:20:32 75° W 22:22:38 29° S
SPOT 5 3.0 22:18:47 23° S 22:21:17 57° W 22:25:35 10° NNW
Cosmos 2366 rocket 4.0 22:15:10 10° N 22:21:18 65° E 22:24:34 29° SSE
Cosmos 921 Rocket 3.8 22:18:04 10° NNW 22:22:22 47° WSW 22:24:47 23° SSW
SPOT 1/Viking Rocket 3.5 22:20:35 27° S 22:23:30 82° WSW 22:28:41 10° NNW
Cosmos 1066 Rocket 4.1 22:20:34 20° S 22:24:26 83° E 22:30:07 10° NNE
Iridium 43 4.4 22:23:31 10° NNW 22:25:28 43° WNW 22:25:28 43° WNW
Cosmos 1544 4.1 22:34:58 10° NNE 22:38:14 31° ENE 22:38:17 31° ENE
Cosmos 1980 Rocket 2.5 22:33:12 10° NNW 22:38:47 57° ENE 22:41:05 34° SE
Cosmos 1953 3.9 22:35:44 10° NNE 22:38:58 22° ENE 22:39:20 22° E
Cosmos 1602 Rocket 3.4 22:40:41 41° S 22:42:10 88° E 22:46:30 10° N
ARGOS 4.2 22:39:41 18° SSW 22:43:15 40° W 22:48:21 10° NNW
Cosmos 468 4.5 22:41:29 23° SSW 22:44:49 89° WNW 22:50:08 10° NNE
ISS -0.9 22:42:30 10° WNW 22:45:00 19° NNW 22:47:28 10° NE
Cosmos 2322 Rocket 3.6 22:44:52 10° N 22:49:44 28° NE 22:52:24 20° E
Cosmos 1766 3.1 22:46:43 10° N 22:50:38 81° E 22:51:05 68° SSE
Meteor 1-21 4.2 22:49:12 38° SSE 22:51:26 69° E 22:57:10 10° NNE
USA 229 DEB 3.9 22:44:55 10° NNW 22:52:05 74° NE 22:55:40 33° SE
USA 229 3.9 22:45:02 10° NNW 22:52:11 74° NE 22:55:46 33° SE
deb Chang Zheng 4 3.5 22:49:22 10° NNE 22:53:40 70° ESE 22:54:23 57° SSE
Meteor 2-14 Rocket 4.4 22:50:08 10° N 22:56:14 87° W 22:58:47 38° S
Timation 2 Rocket 3.9 22:52:15 18° SSW 22:57:09 90° ESE 23:03:20 10° NNE
Lacrosse 5 rocket 3.5 22:57:32 10° NNW 23:01:26 26° NNE 23:04:30 14° ENE
Cosmos 2218 Rocket 4.5 22:57:11 10° NNW 23:03:09 53° W 23:06:29 26° SSW
Cosmos 158 Rocket 4.0 23:02:36 37° SSW 23:04:47 89° ESE 23:10:13 10° NNE
Cosmos 1470 4.4 23:02:52 10° NNE 23:06:03 24° ENE 23:06:03 24° ENE
CARTOSAT-1 3.9 23:07:09 48° SW 23:07:59 58° W 23:12:16 10° NNW
DELTA 2 DEB (DPAF) 4.2 23:08:27 55° ESE 23:09:04 61° ENE 23:13:30 10° N
H-2A R/B 3.3 23:09:14 23° SW 23:11:23 32° W 23:15:55 10° NNW
CZ-2C R/B 4.2 23:07:22 10° NE 23:11:32 21° E 23:11:39 21° E
CZ-4B R/B 3.4 23:09:44 10° NNE 23:14:51 76° ESE 23:16:01 54° S
Cosmos 2082 Rocket 3.5 23:10:01 10° SW 23:15:18 39° WNW 23:20:35 10° N
CZ-4 R/B 3.9 23:13:47 10° NNE 23:18:50 83° WNW 23:20:15 49° SSW
Cosmos 1805 3.2 23:16:59 10° N 23:20:47 81° WNW 23:20:47 81° WNW
Cosmos 1758 3.3 23:17:21 10° N 23:21:12 75° NE 23:21:12 75° NE
IGS 5A 4.4 23:25:25 36° WSW 23:25:55 38° W 23:29:49 10° NNW
Nadezhda 3 Rocket 4.0 23:27:58 40° SSW 23:30:26 80° W 23:36:49 10° N
Cosmos 1758 Rocket 3.5 23:30:38 68° E 23:30:38 68° E 23:34:50 10° NNE
H-2A R/B 3.2 23:32:00 32° WSW 23:32:47 35° W 23:36:56 10° NNW
Cosmos 1697 Rocket 3.9 23:28:56 10° NW 23:33:47 31° WSW 23:35:16 27° SW
ATLAS CENTAUR R/B 2.1 23:31:20 10° NNW 23:34:34 39° NE 23:34:34 39° NE
Cosmos 2239 Rocket 4.4 23:29:28 10° N 23:35:40 81° E 23:37:17 52° SSE
Cosmos 2360 4.4 23:33:14 10° NNW 23:38:50 58° WSW 23:39:55 49° SSW
Tiangong 2 4.0 23:35:59 10° W 23:36:17 12° W 23:36:17 12° W
SL-16 R/B 2.3 23:36:43 10° NNW 23:42:23 67° ENE 23:43:34 52° ESE
Cosmos 1821 Rocket 3.9 23:38:37 10° N 23:44:57 87° W 23:46:37 53° S
CZ-4C R/B 4.1 23:48:47 41° WNW 23:48:47 41° WNW 23:51:35 10° NNW
Cosmos 389 Rocket 3.7 23:45:45 10° NNW 23:48:14 39° NW 23:48:14 39° NW
Cosmos 972 Rocket 3.7 23:46:13 10° NNW 23:51:26 88° WSW 23:51:48 77° S
Cosmos 1331 Rocket 3.8 23:46:42 10° NNW 23:51:53 86° WSW 23:52:20 75° S
Terra 3.5 23:51:10 22° WSW 23:52:07 23° W 23:55:55 10° NW
Cosmos 1271 Rocket 4.5 23:49:26 10° NW 23:52:37 24° W 23:52:37 24° W
Cosmos 1110 Rocket 3.9 23:49:33 10° NNW 23:54:48 72° WSW 23:55:14 67° SW
